Zacatecas Airport, Mexico

12:30 AM CDT on July 27, 2017 (GMT -0500)
Gen Leobardo C Ruiz International

Weather History for MMZC - March, 2013

Change the Weather History Date:

Friday, March 22, 2013

  Actual Average Record
Temperature  
Mean Temperature 56 °F -  
Max Temperature 78 °F 74 °F 84 °F (2014)
Min Temperature 35 °F 39 °F 30 °F (1998)
Degree Days  
Heating Degree Days 8    
Growing Degree Days 6 (Base 50)    
Moisture  
Dew Point 18 °F    
Average Humidity 20    
Maximum Humidity 48    
Minimum Humidity 11    
Precipitation  
Precipitation 0.00 in - - ()
Sea Level Pressure  
Sea Level Pressure 30.14 in    
Wind  
Wind Speed 13 mph ()    
Max Wind Speed 29 mph    
Max Gust Speed 36 mph    
Visibility 9.6 miles    
Events      
Averages and records for this station are not official NWS values.
T = Trace of Precipitation, MM = Missing Value Source: Averaged Metar Reports

Daily Weather History Graph

Daily Weather History Graph

Search for Another Location

Airport or City:

Trip Planner

Search our weather history database for the weather conditions in past years. The results will help you decide how hot, cold, wet, or windy it might be!

Date:

Astronomy

Mar. 22, 2013 Rise Set
Actual Time 6:52 AM CST 7:02 PM CST
Civil Twilight 6:30 AM CST 7:25 PM CST
Nautical Twilight 6:03 AM CST 7:51 PM CST
Astronomical Twilight 5:37 AM CST 8:17 PM CST
Moon 2:58 PM CST (3/22) 3:25 AM CST (3/22)
Length of Visible Light 12h 55m
Length of Day
12h 10m
Waxing Gibbous, 78% of the Moon is Illuminated
Mar 22
Waxing Gibbous
Mar 27
Full
Apr 2
Last Quarter
Apr 10
New
Apr 18
First Quarter

Hourly Weather History & Observations

Time (CST) Temp. Windchill Dew Point Humidity Pressure Visibility Wind Dir Wind Speed Gust Speed Precip Events Conditions
12:47 AM 35.6 °F - 17.6 °F 48% 30.13 in 10.0 mi Calm Calm - N/A   Clear
1:46 AM 64.4 °F - 15.8 °F 15% 30.13 in 10.0 mi SSW 11.5 mph - N/A   Clear
2:46 AM 51.8 °F - 14.0 °F 22% 30.11 in 10.0 mi South 11.5 mph - N/A   Clear
3:46 AM 51.8 °F - 12.2 °F 21% 30.11 in 10.0 mi South 13.8 mph - N/A   Clear
4:46 AM 48.2 °F - 15.8 °F 27% 30.11 in 10.0 mi South 11.5 mph - N/A   Clear
6:10 AM 46.4 °F 41.5 °F 19.4 °F 34% 30.14 in 10.0 mi South 10.4 mph - N/A   Clear
6:48 AM 46.4 °F 41.5 °F 19.4 °F 34% 30.16 in 10.0 mi SSW 10.4 mph - N/A   Clear
7:48 AM 50.0 °F - 21.2 °F 32% 30.18 in 10.0 mi South 11.5 mph - N/A   Clear
8:42 AM 59.0 °F - 23.0 °F 25% 30.20 in 10.0 mi SSW 20.7 mph - N/A   Clear
9:43 AM 66.2 °F - 23.0 °F 19% 30.20 in 10.0 mi SSW 16.1 mph - N/A   Clear
10:46 AM 71.6 °F - 24.8 °F 17% 30.20 in 10.0 mi WSW 20.7 mph - N/A   Clear
11:42 AM 73.4 °F - 21.2 °F 14% 30.18 in 10.0 mi West 23.0 mph - N/A   Clear
12:46 PM 77.0 °F - 21.2 °F 12% 30.14 in 10.0 mi WSW 23.0 mph 34.5 mph N/A   Clear
1:46 PM 78.8 °F - 19.4 °F 11% 30.10 in 10.0 mi WSW 23.0 mph 34.5 mph N/A   Clear
2:58 PM 78.8 °F - 21.2 °F 12% 30.08 in 8.0 mi WSW 23.0 mph 34.5 mph N/A   Clear
3:45 PM 78.8 °F - 21.2 °F 12% 30.07 in 8.0 mi SW 24.2 mph 35.7 mph N/A   Clear
4:50 PM 77.0 °F - 19.4 °F 12% 30.07 in 8.0 mi WSW 20.7 mph 32.2 mph N/A   Clear
5:49 PM 73.4 °F - 17.6 °F 12% 30.08 in 8.0 mi WSW 28.8 mph - N/A   Clear
6:42 PM 69.8 °F - 14.0 °F 12% 30.11 in 8.0 mi WSW 24.2 mph - N/A   Clear
7:58 PM 62.6 °F - 10.4 °F 13% 30.14 in 10.0 mi WSW 15.0 mph - N/A   Clear
8:52 PM 57.2 °F - 10.4 °F 16% 30.17 in 10.0 mi SW 11.5 mph - N/A   Clear
9:45 PM 60.8 °F - 19.4 °F 20% 30.18 in 10.0 mi SW 17.3 mph - N/A   Clear
10:40 PM 57.2 °F - 19.4 °F 23% 30.19 in 10.0 mi SW 13.8 mph - N/A   Clear
11:41 PM 57.2 °F - 17.6 °F 21% 30.19 in 10.0 mi SW 15.0 mph - N/A   Clear